Location: ???????
(54.6339°N, 39.4245°E)
Time: 04:00:01
(UTC+00:00)

Cosmos 1066 Rocket - Pass Details

Date: 19 May 2025
Orbit: 798 x 892 km, 81.2° (Epoch: 15 June)

Event Time Altitude Azimuth Distance (km) Brightness Sun altitude
Exits shadow 21:23:02 23° 192° (SSW) 1,735 5.2 -15.4°
Maximum altitude 21:26:42 90° 103° (ESE) 872 4.2 -15.4°
Drops below altitude 10° 21:32:30 10° 14° (NNE) 2,546 8.0 -15.3°
Sets 21:34:59 0° 15° (NNE) 3,499 9.1 -15.3°
